• en France
  • Liste des pays
  • À 7 jours
  • Température de l'eau
  • Carte satellitaire
  • Carte météo
  • Widgets météo
  • user-avatar
    Se connecter

    Météo par heure à Río Galyegos

    Ce jour, 16 Novembre, Vendredi

    Heure Température Précipitation Vent Pression Humidité
    00:00 +5°C° 0 mm 9 m/s 750 mmHg 53%
    01:00 +3°C° 0 mm 9 m/s 750 mmHg 53%
    02:00 +3°C° 0 mm 9 m/s 749 mmHg 53%
    03:00 +5°C° 0 mm 9 m/s 749 mmHg 53%
    04:00 +5°C° 0 mm 9 m/s 749 mmHg 53%
    05:00 +6°C° 0.1 mm 10 m/s 749 mmHg 53%
    06:00 +7°C° 0.1 mm 10 m/s 749 mmHg 54%
    07:00 +8°C° 0.1 mm 11 m/s 749 mmHg 54%
    08:00 +8°C° 0 mm 10 m/s 749 mmHg 53%
    09:00 +10°C° 0 mm 9 m/s 749 mmHg 52%
    10:00 +10°C° 0 mm 8 m/s 749 mmHg 52%
    11:00 +10°C° 0 mm 8 m/s 749 mmHg 50%
    12:00 +11°C° 0 mm 7 m/s 749 mmHg 49%
    13:00 +11°C° 0 mm 7 m/s 749 mmHg 47%
    14:00 +11°C° 0.1 mm 7 m/s 749 mmHg 46%
    15:00 +11°C° 0.1 mm 6 m/s 750 mmHg 45%
    16:00 +11°C° 0.1 mm 6 m/s 750 mmHg 44%
    17:00 +10°C° 0 mm 6 m/s 750 mmHg 46%
    18:00 +9°C° 0 mm 5 m/s 751 mmHg 48%
    19:00 +8°C° 0 mm 5 m/s 752 mmHg 49%
    20:00 +8°C° 0 mm 4 m/s 752 mmHg 53%
    21:00 +7°C° 0 mm 4 m/s 753 mmHg 57%
    22:00 +7°C° 0 mm 3 m/s 753 mmHg 61%
    23:00 +5°C° 0 mm 3 m/s 753 mmHg 63%

    Demain, 17 Novembre, Samedi

    Heure Température Précipitation Vent Pression Humidité
    00:00 +5°C° 0 mm 3 m/s 753 mmHg 64%
    01:00 +4°C° 0 mm 3 m/s 754 mmHg 66%
    02:00 +4°C° 0 mm 3 m/s 754 mmHg 67%
    03:00 +4°C° 0 mm 3 m/s 754 mmHg 68%
    04:00 +4°C° 0 mm 3 m/s 755 mmHg 70%
    05:00 +5°C° 0 mm 3 m/s 755 mmHg 64%
    06:00 +7°C° 0 mm 3 m/s 755 mmHg 57%
    07:00 +7°C° 0 mm 4 m/s 755 mmHg 51%
    08:00 +8°C° 0 mm 4 m/s 755 mmHg 47%
    09:00 +10°C° 0 mm 4 m/s 755 mmHg 44%
    10:00 +11°C° 0 mm 4 m/s 754 mmHg 40%
    11:00 +12°C° 0 mm 5 m/s 754 mmHg 39%
    12:00 +13°C° 0 mm 6 m/s 753 mmHg 38%
    13:00 +14°C° 0 mm 7 m/s 753 mmHg 37%
    14:00 +14°C° 0 mm 7 m/s 752 mmHg 40%
    15:00 +13°C° 0 mm 8 m/s 752 mmHg 42%
    16:00 +13°C° 0 mm 8 m/s 751 mmHg 45%
    17:00 +12°C° 0 mm 8 m/s 750 mmHg 49%
    18:00 +12°C° 0 mm 8 m/s 750 mmHg 54%
    19:00 +11°C° 0 mm 9 m/s 749 mmHg 58%
    20:00 +11°C° 0.2 mm 9 m/s 748 mmHg 61%
    21:00 +10°C° 0.2 mm 9 m/s 747 mmHg 64%
    22:00 +10°C° 0.2 mm 9 m/s 747 mmHg 67%
    23:00 +9°C° 0.1 mm 7 m/s 746 mmHg 67%

    Après-demain, 18 Novembre, Dimanche

    Heure Température Précipitation Vent Pression Humidité
    00:00 +9°C° 0.1 mm 6 m/s 746 mmHg 66%
    01:00 +8°C° 0.1 mm 4 m/s 745 mmHg 66%
    02:00 +8°C° 0.1 mm 5 m/s 746 mmHg 65%
    03:00 +6°C° 0.1 mm 7 m/s 747 mmHg 64%
    04:00 +6°C° 0.1 mm 9 m/s 747 mmHg 64%
    05:00 +6°C° 0 mm 11 m/s 748 mmHg 58%
    06:00 +7°C° 0 mm 12 m/s 749 mmHg 52%
    07:00 +8°C° 0 mm 13 m/s 749 mmHg 46%
    08:00 +8°C° 0 mm 13 m/s 749 mmHg 44%
    09:00 +9°C° 0 mm 13 m/s 749 mmHg 42%
    10:00 +10°C° 0 mm 13 m/s 749 mmHg 40%
    11:00 +12°C° 0 mm 12 m/s 749 mmHg 38%
    12:00 +13°C° 0 mm 11 m/s 749 mmHg 36%
    13:00 +14°C° 0 mm 11 m/s 748 mmHg 34%
    14:00 +14°C° 0 mm 10 m/s 748 mmHg 32%
    15:00 +15°C° 0 mm 9 m/s 747 mmHg 30%
    16:00 +16°C° 0 mm 9 m/s 747 mmHg 29%
    17:00 +15°C° 0 mm 8 m/s 747 mmHg 32%
    18:00 +12°C° 0 mm 8 m/s 747 mmHg 35%
    19:00 +11°C° 0 mm 7 m/s 746 mmHg 39%
    20:00 +11°C° 0 mm 6 m/s 746 mmHg 43%
    21:00 +11°C° 0 mm 4 m/s 746 mmHg 48%
    22:00 +10°C° 0 mm 3 m/s 745 mmHg 52%
    23:00 +10°C° 0 mm 3 m/s 744 mmHg 52%

    19 Novembre, Lundi

    Heure Température Précipitation Vent Pression Humidité
    00:00 +9°C° 0 mm 3 m/s 744 mmHg 52%
    01:00 +9°C° 0 mm 3 m/s 743 mmHg 52%
    02:00 +9°C° 0 mm 3 m/s 742 mmHg 52%
    03:00 +9°C° 0 mm 3 m/s 741 mmHg 51%
    04:00 +8°C° 0 mm 3 m/s 741 mmHg 50%
    05:00 +9°C° 0 mm 5 m/s 740 mmHg 48%
    06:00 +10°C° 0 mm 7 m/s 739 mmHg 46%
    07:00 +11°C° 0 mm 9 m/s 739 mmHg 43%
    08:00 +12°C° 0 mm 11 m/s 738 mmHg 43%
    09:00 +13°C° 0 mm 13 m/s 738 mmHg 42%
    10:00 +13°C° 0 mm 15 m/s 737 mmHg 42%
    11:00 +13°C° 0 mm 16 m/s 737 mmHg 40%
    12:00 +13°C° 0 mm 16 m/s 737 mmHg 38%
    13:00 +11°C° 0 mm 17 m/s 738 mmHg 35%
    14:00 +11°C° 0 mm 17 m/s 738 mmHg 36%
    15:00 +10°C° 0 mm 17 m/s 738 mmHg 37%
    16:00 +10°C° 0 mm 18 m/s 738 mmHg 37%
    17:00 +9°C° 0.1 mm 17 m/s 739 mmHg 43%
    18:00 +7°C° 0.1 mm 17 m/s 739 mmHg 48%
    19:00 +6°C° 0.1 mm 16 m/s 740 mmHg 53%
    20:00 +5°C° 0 mm 15 m/s 740 mmHg 54%
    21:00 +5°C° 0 mm 14 m/s 741 mmHg 55%
    22:00 +4°C° 0 mm 13 m/s 742 mmHg 57%
    23:00 +4°C° 0 mm 13 m/s 742 mmHg 58%

    20 Novembre, Mardi

    Heure Température Précipitation Vent Pression Humidité
    00:00 +4°C° 0 mm 13 m/s 743 mmHg 59%
    01:00 +4°C° 0 mm 13 m/s 743 mmHg 59%
    02:00 +4°C° 0 mm 13 m/s 744 mmHg 61%
    03:00 +4°C° 0 mm 12 m/s 744 mmHg 62%
    04:00 +4°C° 0 mm 12 m/s 745 mmHg 63%
    05:00 +5°C° 0 mm 13 m/s 745 mmHg 58%
    06:00 +6°C° 0 mm 14 m/s 745 mmHg 53%
    07:00 +8°C° 0 mm 14 m/s 746 mmHg 48%
    08:00 +9°C° 0 mm 13 m/s 746 mmHg 46%
    09:00 +9°C° 0 mm 12 m/s 746 mmHg 44%
    10:00 +10°C° 0 mm 12 m/s 746 mmHg 42%
    11:00 +12°C° 0 mm 10 m/s 746 mmHg 40%
    12:00 +12°C° 0 mm 8 m/s 746 mmHg 38%
    13:00 +14°C° 0 mm 7 m/s 745 mmHg 36%
    14:00 +13°C° 0.2 mm 6 m/s 745 mmHg 41%
    15:00 +12°C° 0.2 mm 5 m/s 744 mmHg 45%
    16:00 +12°C° 0.2 mm 4 m/s 743 mmHg 50%
    17:00 +10°C° 0.5 mm 7 m/s 742 mmHg 57%
    18:00 +8°C° 0.5 mm 9 m/s 741 mmHg 64%
    19:00 +7°C° 0.5 mm 11 m/s 739 mmHg 71%
    20:00 +7°C° 1.2 mm 10 m/s 738 mmHg 75%
    21:00 +7°C° 1.2 mm 9 m/s 736 mmHg 79%
    22:00 +8°C° 1.2 mm 9 m/s 735 mmHg 83%
    23:00 +9°C° 0.1 mm 8 m/s 733 mmHg 81%

    21 Novembre, Mercredi

    Heure Température Précipitation Vent Pression Humidité
    00:00 +9°C° 0.1 mm 7 m/s 732 mmHg 78%
    01:00 +10°C° 0.1 mm 6 m/s 731 mmHg 76%
    02:00 +10°C° 0 mm 5 m/s 730 mmHg 72%
    03:00 +10°C° 0 mm 5 m/s 729 mmHg 69%
    04:00 +9°C° 0 mm 5 m/s 728 mmHg 66%
    05:00 +10°C° 0 mm 7 m/s 728 mmHg 63%
    06:00 +11°C° 0 mm 9 m/s 728 mmHg 59%
    07:00 +12°C° 0 mm 11 m/s 729 mmHg 55%
    08:00 +10°C° 0 mm 13 m/s 730 mmHg 57%
    09:00 +9°C° 0 mm 15 m/s 731 mmHg 59%
    10:00 +7°C° 0 mm 17 m/s 732 mmHg 60%
    11:00 +7°C° 0 mm 19 m/s 734 mmHg 55%
    12:00 +7°C° 0 mm 20 m/s 736 mmHg 51%
    13:00 +7°C° 0 mm 21 m/s 738 mmHg 46%
    14:00 +7°C° 0 mm 20 m/s 740 mmHg 44%
    15:00 +7°C° 0 mm 19 m/s 742 mmHg 42%
    16:00 +7°C° 0 mm 18 m/s 745 mmHg 41%
    17:00 +6°C° 0 mm 15 m/s 746 mmHg 43%
    18:00 +7°C° 0 mm 13 m/s 748 mmHg 45%
    19:00 +7°C° 0 mm 11 m/s 749 mmHg 48%
    20:00 +6°C° 0 mm 10 m/s 750 mmHg 52%
    21:00 +6°C° 0 mm 9 m/s 751 mmHg 57%
    22:00 +5°C° 0 mm 8 m/s 751 mmHg 61%
    23:00 +5°C° 0 mm 8 m/s 751 mmHg 60%
    Voir plus